Theta_e
302 302 302 301 301 301 301 301 301 301 302 302 302 302 303 304 305 305 305 305 305 305 304 304 304 304 304 304 304 304 305 305 305 305 306 307 307 306 307 306 305 306
301 301 301 301 301 300 300 301 301 302 302 302 302 302 303 303 304 305 305 305 304 305 305 304 304 304 303 303 302 303 302 303 303 302 304 304 305 305 306 305 305 305
300 300 301 300 301 300 300 301 301 302 302 302 302 302 303 304 304 304 305 305 304 305 305 305 304 304 303 303 302 302 302 301 301 300 302 302 303 303 304 304 304 304
300 300 301 301 301 300 300 300 300 301 301 301 302 303 303 303 304 304 304 303 305 305 304 304 304 303 303 302 302 302 302 302 302 301 301 301 302 303 303 302 303 302
299 300 300 301 301 301 300 300 300 301 301 302 302 302 302 302 303 303 303 304 304 304 304 304 303 303 302 302 302 302 301 301 300 301 302 301 301 302 302 302 302 302
299 300 300 300 300 300 300 300 300 301 301 301 302 302 303 303 303 303 303 303 304 304 303 303 303 302 302 302 302 302 301 301 300 301 301 301 301 302 302 302 303 303
298 298 299 299 299 299 299 300 300 300 301 302 302 302 303 302 303 303 303 304 304 303 303 303 302 301 302 302 302 302 301 302 301 302 302 302 302 301 302 303 304 304
297 298 298 298 298 298 298 299 299 300 301 301 302 302 302 303 303 303 303 303 303 303 303 303 303 302 301 302 302 302 302 302 302 303 304 305 305 305 304 305 305 306
296 297 297 297 297 298 298 299 299 300 301 301 302 302 302 303 303 303 303 303 303 303 302 302 302 302 302 303 303 304 304 304 304 304 304 304 304 304 304 306 307 307
296 296 296 297 297 297 298 298 299 300 300 301 302 301 301 301 302 302 302 302 302 302 302 302 301 301 302 304 304 304 304 304 304 304 303 303 303 304 306 307 307 306
295 295 296 296 297 297 297 297 298 299 299 301 301 300 300 300 300 301 301 301 301 301 301 301 301 301 302 303 304 304 303 302 303 303 303 303 304 306 303 307 306 306
295 295 296 296 296 297 297 297 298 298 299 299 300 300 299 299 300 300 300 301 301 301 301 301 301 301 302 302 302 302 302 302 302 302 303 305 306 307 306 306 306 306
294 295 296 296 296 297 297 297 297 298 298 299 299 300 299 299 299 300 299 301 301 301 301 301 301 301 302 302 302 302 302 303 303 304 305 306 306 306 306 306 306 306
293 294 295 296 296 296 297 296 297 296 297 298 297 299 298 299 299 299 299 300 301 300 301 301 301 301 301 302 302 303 304 304 305 305 306 306 305 306 306 306 306 306
292 291 293 294 294 295 294 295 295 295 295 296 296 297 298 299 299 299 298 298 298 299 299 300 301 301 301 302 302 303 305 305 306 306 306 305 305 305 305 305 305 306
289 290 291 291 292 293 293 293 293 293 294 294 295 296 296 296 297 298 298 298 297 297 298 299 300 301 297 298 299 304 305 306 306 306 305 305 303 303 303 304 305 305
288 288 288 290 291 291 291 292 293 292 293 293 294 294 294 294 295 296 296 297 298 298 297 299 300 300 296 298 299 300 304 306 306 305 305 304 303 302 301 301 302 303
287 287 288 289 289 291 291 290 290 290 291 292 292 291 292 292 294 296 296 296 297 297 298 298 298 295 297 298 299 300 300 305 307 305 304 304 303 302 302 301 301 301
286 287 288 288 289 290 290 289 289 290 290 290 291 291 290 292 294 295 295 295 296 297 296 296 297 296 297 298 298 299 299 302 307 306 304 304 302 302 302 301 300 299
286 286 287 287 287 287 287 288 289 290 289 290 290 290 292 292 292 294 294 294 295 296 296 296 296 296 297 297 297 298 298 301 306 306 305 303 302 301 301 301 300 299
285 285 286 286 285 286 287 287 289 288 288 288 289 290 292 292 293 293 294 294 294 294 295 295 297 295 296 297 297 297 298 299 305 304 303 302 301 301 301 301 300 300
285 285 285 286 285 285 286 287 287 288 288 287 288 288 289 290 290 293 294 295 295 295 295 295 294 295 295 296 297 297 297 299 303 302 301 300 300 300 300 300 299 299
285 285 285 285 284 285 286 287 287 286 286 286 288 289 290 290 291 293 294 295 294 294 295 295 293 294 294 294 296 297 297 299 301 301 300 299 299 298 299 298 298 298
284 285 285 285 285 286 287 287 286 286 286 287 289 289 289 290 291 292 293 295 294 294 295 294 293 292 293 294 295 295 296 299 299 300 298 298 297 296 297 297 297 291
282 284 285 285 286 287 287 287 286 287 286 286 287 288 289 290 290 291 291 293 293 294 290 293 292 291 292 293 293 294 296 299 299 299 297 295 295 293 292 294 294 291
282 283 284 285 286 286 285 286 285 285 285 286 285 287 288 289 289 290 291 291 290 291 291 293 292 292 291 293 293 293 295 297 298 298 297 294 293 293 292 290 291 291
Wind_Speed
15 13 15 13 13 11 12 12 11 12 12 11 12 12 13 12 11 12 13 11 10 11 10 10 9 9 9 9 9 8 8 9 8 7 8 8 8 8 9 9 7 7
16 15 12 11 11 9 10 10 11 13 13 12 11 10 9 9 10 12 12 11 10 11 10 10 10 10 10 9 8 9 7 7 8 5 8 8 7 8 9 9 9 7
15 15 15 15 14 14 14 12 12 11 10 11 9 8 8 9 10 10 11 12 12 11 10 10 10 9 10 9 9 8 8 7 8 6 7 8 7 8 8 7 6 8
17 17 16 16 14 13 12 11 11 10 9 9 11 10 10 8 9 10 11 12 11 11 10 10 10 9 9 9 9 7 8 8 7 7 7 5 7 8 8 6 6 6
15 15 14 14 13 12 10 12 12 11 11 11 7 8 9 9 10 10 10 10 10 10 10 10 9 9 9 9 9 8 7 7 6 8 8 8 7 8 7 7 7 7
12 13 13 13 12 13 12 13 13 12 11 10 12 9 10 10 10 11 11 12 11 11 11 10 10 9 9 9 8 8 8 7 7 8 8 8 7 7 6 7 7 7
12 11 12 11 11 13 13 13 11 12 11 11 8 11 11 11 12 12 12 12 12 11 12 11 11 10 9 9 9 8 7 8 8 9 9 7 7 7 6 7 7 7
10 9 10 9 10 10 10 10 10 10 10 8 11 10 10 12 12 11 11 11 11 11 11 11 11 11 10 9 9 9 8 7 9 9 9 8 7 7 7 6 6 7
8 9 9 10 11 10 11 11 10 10 10 12 11 10 11 11 12 11 11 11 11 11 11 11 11 11 10 10 10 11 11 9 9 9 9 9 8 8 7 6 7 7
8 8 9 11 12 11 11 10 10 10 10 11 11 10 11 10 10 11 11 12 12 11 11 11 11 10 10 10 11 11 10 10 9 8 8 8 7 7 7 7 8 7
7 7 9 10 11 9 10 10 10 10 9 11 11 11 11 10 9 9 11 12 12 13 12 12 12 12 12 11 10 9 10 9 9 8 8 7 7 7 7 8 8 8
7 7 8 9 9 8 10 10 10 10 10 9 11 11 9 10 11 10 11 12 11 12 12 12 11 11 12 11 10 9 8 7 7 8 7 7 7 8 8 8 8 7
6 7 8 8 9 9 8 8 9 10 10 11 10 11 11 11 10 11 10 12 11 11 12 12 11 11 10 10 10 9 9 8 8 8 8 8 8 8 7 7 7 7
5 5 6 7 7 7 8 9 8 8 9 8 8 11 11 12 12 12 10 10 11 11 10 10 11 10 10 9 9 9 9 8 8 9 9 8 8 8 7 7 8 8
4 4 4 5 5 5 6 6 7 7 7 8 9 9 9 10 10 11 11 10 9 10 10 9 11 11 10 10 10 9 9 9 9 9 9 8 7 7 7 7 7 7
3 3 4 4 4 5 5 6 7 7 8 8 8 8 8 8 9 9 10 11 10 9 9 9 9 8 11 15 13 10 10 9 9 9 9 8 7 7 7 7 7 6
2 3 3 4 5 5 5 6 7 6 7 8 8 8 9 8 9 10 9 10 11 11 10 9 8 8 15 15 15 14 11 9 9 9 8 8 8 8 7 7 6 7
3 3 4 4 4 6 6 6 6 7 7 8 8 8 7 7 9 10 10 9 9 10 10 10 8 11 15 15 16 16 13 9 8 8 8 8 8 8 8 8 8 7
3 4 4 4 5 6 6 6 6 6 6 7 8 7 7 9 9 9 9 8 9 10 9 8 7 12 15 16 16 16 16 13 8 9 8 8 8 8 8 7 7 6
2 3 4 4 3 3 4 5 6 8 7 7 7 7 8 8 7 9 8 9 10 10 9 8 7 11 15 15 16 16 16 13 7 9 9 8 9 8 8 8 7 7
3 2 3 3 3 3 4 5 7 6 6 6 7 8 9 9 9 8 8 8 7 7 7 8 8 12 14 15 15 16 15 12 6 7 7 7 7 8 8 8 7 7
4 4 2 1 3 4 4 5 6 7 8 6 6 5 5 5 5 6 8 9 8 8 8 8 6 12 13 14 16 15 15 10 7 7 7 7 7 7 7 6 6 7
7 4 3 3 3 4 5 6 6 6 5 5 6 6 7 6 7 6 6 7 8 7 8 7 7 11 12 13 14 15 12 7 7 6 7 7 7 7 6 6 6 6
8 6 4 3 4 6 7 6 5 4 4 6 8 8 7 6 6 5 5 6 8 9 9 9 7 9 13 12 13 15 12 8 7 7 7 7 6 6 6 6 7 11
8 6 5 4 5 6 6 6 6 7 5 6 6 6 7 6 6 6 5 5 6 7 9 9 7 8 12 11 12 14 11 7 8 7 7 6 6 6 4 5 5 7
8 6 5 4 6 5 4 5 3 3 5 5 4 5 6 6 6 6 7 6 5 6 7 7 7 7 9 13 12 13 13 8 7 8 8 8 6 7 6 4 4 5
Wind_Direction
207 205 209 208 211 209 202 199 197 199 201 199 198 198 195 198 184 186 193 192 189 188 186 183 177 174 174 170 172 169 176 181 180 175 182 185 192 188 197 200 200 202
205 206 207 208 211 202 201 196 196 200 203 200 202 192 193 180 189 184 188 188 186 191 184 179 178 174 170 169 170 170 172 173 180 170 178 187 190 189 202 198 202 201
200 201 204 204 204 201 200 197 198 201 200 200 192 189 186 184 182 184 185 186 185 185 183 181 175 174 170 170 168 170 171 172 179 173 181 190 184 193 205 195 200 197
203 202 202 203 202 201 196 194 198 197 193 185 193 189 182 177 168 180 187 185 182 183 182 176 176 171 170 168 165 172 174 177 176 167 184 186 190 192 198 190 198 197
204 205 205 203 199 195 188 197 197 193 191 193 175 169 170 166 174 180 183 185 184 183 177 178 173 171 167 166 168 169 173 175 169 173 183 188 190 188 193 182 194 199
209 208 204 200 196 190 193 199 196 191 189 182 186 174 179 174 176 181 185 186 187 181 178 174 174 171 168 166 167 174 171 173 175 176 185 188 185 191 182 186 189 197
205 203 206 203 200 198 198 196 191 189 189 187 165 184 176 176 184 186 187 188 184 182 181 178 173 171 171 165 170 172 174 176 171 180 185 187 176 189 191 187 193 198
202 200 201 197 199 200 201 195 190 188 180 165 183 183 177 185 185 185 185 184 183 184 183 178 175 170 168 165 170 172 174 176 175 180 186 184 181 193 191 193 195 207
195 195 191 194 195 196 199 192 189 180 173 179 182 178 186 185 186 182 184 182 183 184 182 179 176 170 169 169 173 175 177 180 181 181 184 185 190 198 197 192 201 207
199 194 188 190 195 195 195 191 184 181 177 182 182 177 183 189 181 181 178 181 182 182 183 177 172 169 168 174 175 175 177 180 181 186 188 190 194 196 196 195 200 201
194 189 193 195 194 190 191 184 183 180 181 185 179 182 184 173 179 176 177 180 183 183 180 177 174 169 168 171 173 174 177 178 182 187 192 196 196 199 196 195 195 202
189 188 195 195 193 190 188 185 183 182 184 187 181 180 172 179 175 177 180 183 184 181 178 176 171 169 169 169 170 170 172 176 178 185 191 194 197 197 193 190 194 199
188 193 191 190 192 189 184 186 187 187 182 185 181 176 174 176 181 179 184 181 182 178 177 171 167 165 165 165 166 168 174 178 185 189 193 194 195 192 186 187 190 197
198 197 192 194 190 186 187 188 182 181 185 179 173 179 180 180 179 181 179 180 177 175 173 166 162 164 164 163 165 171 175 185 188 189 190 190 186 182 184 189 191 193
197 196 194 187 188 185 182 179 177 177 175 175 181 182 180 181 178 175 171 175 171 171 167 165 164 169 167 166 168 175 181 187 189 188 185 180 177 179 185 188 190 194
199 183 180 173 171 179 180 174 174 175 174 175 182 180 176 175 174 175 172 170 166 166 164 165 170 170 170 169 170 174 182 185 186 186 181 174 172 180 187 189 191 196
166 182 162 170 179 171 172 174 177 172 174 175 176 176 175 171 168 170 175 172 168 166 167 171 171 170 168 171 175 180 181 183 184 181 177 175 176 181 189 191 197 198
187 169 175 184 168 178 175 177 170 172 176 176 171 171 172 163 171 175 172 172 169 166 168 172 176 167 166 173 180 185 185 182 179 176 177 179 178 181 186 189 193 196
171 178 189 186 193 181 175 164 167 171 173 171 177 171 156 170 177 169 175 169 165 167 172 173 171 168 170 178 186 188 187 182 180 177 179 182 181 182 183 187 186 187
226 194 193 200 191 169 158 162 167 180 180 177 166 162 168 168 169 174 169 171 174 172 170 166 167 173 179 183 187 189 189 185 180 178 180 181 182 181 185 188 187 180
306 269 230 190 174 169 168 174 181 178 174 173 166 169 170 176 175 174 176 171 168 163 158 166 179 177 183 185 186 188 189 188 179 177 175 178 178 180 184 188 188 184
313 297 282 198 176 172 180 186 183 178 175 171 165 174 174 160 169 169 166 170 171 166 163 169 174 182 184 186 188 187 186 186 184 175 174 171 174 178 182 185 183 180
315 292 267 214 188 187 199 197 188 183 175 159 160 171 169 172 174 176 172 167 160 159 161 170 175 190 186 188 188 186 180 186 177 171 170 171 175 175 179 178 179 181
318 295 271 237 201 204 205 209 203 191 176 171 169 168 178 180 168 168 171 170 166 173 176 172 177 185 185 186 185 185 179 176 174 169 171 171 170 173 172 176 182 184
321 302 269 246 231 226 215 202 195 192 177 174 176 169 172 162 164 166 163 167 175 175 165 168 173 186 185 182 179 181 178 170 171 170 167 175 165 176 178 169 183 190
329 319 283 255 246 246 231 222 188 154 162 171 167 168 165 165 162 165 171 176 165 161 170 172 173 189 188 184 182 179 177 167 167 167 176 173 175 169 166 185 186 192